Regional Weather Roundup
Issued by NWS Cleveland, OH

Home | Current Version | Previous Version | Graphics & Text | Print | Product List | Glossary On
Versions: 1 2 3 4 5 6 7 8 9 10 11 12 13 14 15 16 17 18 19 20 21 22 23 24 25 26 27 28 29 30 31 32 33 34 35 36 37 38 39 40 41 42 43 44 45 46 47 48 49 50
000
ASUS41 KCLE 221410
RWRCLE
OHIO REGIONAL WEATHER ROUNDUP
NATIONAL WEATHER SERVICE CLEVELAND, OH
900 AM EST WED FEB 22 2017

NOTE: "FAIR" INDICATES FEW OR NO CLOUDS BELOW 12,000 FEET WITH NO
SIGNIFICANT WEATHER AND/OR OBSTRUCTIONS TO VISIBILITY.

OHZ001>008-015>018-024>027-034-035-043-044-221500-
   NORTHWEST OHIO

CITY           SKY/WX    TMP DP  RH WIND       PRES   REMARKS
DEFIANCE       CLOUDY    53  51  93 S6        29.88F FOG
FINDLAY        CLOUDY    56  52  86 S8        29.89F FOG
TOLEDO EXPRESS PTSUNNY   55  54  96 SW10      29.88S FOG
TOLEDO EXEC    CLOUDY    56  54  93 SW10      29.89F FOG
LIMA           CLOUDY    55  55 100 S8        29.90F FOG
$$

OHZ009>014-019>023-028>033-038-089-221500-
   NORTHEAST OHIO

CITY           SKY/WX    TMP DP  RH WIND       PRES   REMARKS
CLE-HOPKINS    CLOUDY    57  52  83 S6        29.93F
CLE-LAKEFRONT  CLOUDY    58  52  80 S9        29.90F
CUY CO. ARPT   CLOUDY    57  54  88 S7        29.92S
LORAIN-ELYRIA  CLOUDY    56  51  84 SW9       29.91F
ASHTABULA      LGT RAIN  53  49  86 S5        29.93S FOG
AKRON-CANTON   LGT RAIN  53  50  89 SW6       29.94S FOG
WOOSTER        CLOUDY    52  51  97 SW5       29.93F FOG
MANSFIELD      CLOUDY    54  54 100 S9        29.93F FOG
YOUNGSTOWN     LGT RAIN  53  50  89 SW7       29.95S FOG
$$

OHZ042-051>053-060>062-070>072-077>081-221500-
  SOUTHWEST OHIO

CITY           SKY/WX    TMP DP  RH WIND       PRES   REMARKS
CINC-COVINGTON LGT RAIN  56  55  97 S7        29.93S FOG
CINC-LUNKEN    CLOUDY    56  56 100 CALM      29.95S FOG
HAMILTON       LGT RAIN  57  56  96 SE3       29.94S FOG
DAYTON         CLOUDY    55  54  96 S10       29.93F FOG
WRIGHT-PAT AFB CLOUDY    56  56 100 S7        29.93S
DAYTON GENERAL CLOUDY    55  54  96 S8        29.93S FOG
WILMINGTON     FOG       53  53 100 S3        29.94S VSB 1
$$

OHZ036-037-039>041-045>050-054>059-063>069-073>076-082>088-221500-
  CENTRAL AND SOUTHEAST OHIO

CITY           SKY/WX    TMP DP  RH WIND       PRES   REMARKS
COLUMBUS       LGT RAIN  56  55  97 S3        29.94F VSB 1/2
OSU AIRPORT    FOG       54  54 100 S6        29.94F VSB 1
BOLTON FIELD   FOG       54  54 100 S3        29.95F VSB 1/4
RICKENBACK AFB DRIZZLE   53  53 100 S6        29.95S
NEWARK         LGT RAIN  53  52  96 CALM      29.94F FOG
MARION         CLOUDY    55  52  89 S9        29.93F FOG
LANCASTER      FOG       56  55  97 S5        29.96S VSB 1
ZANESVILLE     CLOUDY    54  50  86 S3        29.96S
NEW PHILLY     NOT AVBL
$$



USA.gov is the U.S. government's official web portal to all federal, state and local government web resources and services.